Terminal Aerodrome Forecast
Issued by NWS Jacksonville, FL

Home | Current Version | Previous Version | Text Only | Print | Product List | Glossary On
Versions: 1 2 3 4 5 6 7 8 9 10 11 12
000
FTUS42 KJAX 260537
TAFSSI
TAF
KSSI 260537Z 2606/2706 16005KT P6SM SKC
     FM261500 11011KT P6SM FEW040
     FM270200 12006KT P6SM SKC=

USA.gov is the U.S. government's official web portal to all federal, state and local government web resources and services.